Location: Peyton Hall Observatory
(40.3466°N, 74.6516°W)
Time: 07:22:14
(UTC-04:00)

ISS - All Passes

Search period start: 06 July 2015 00:00
Search period end: 16 July 2015 00:00
Orbit: 398 x 403 km, 51.6° (Epoch: 05 July)

Date Brightness Start Highest point End Pass type
(mag) Time Alt. Az. Time Alt. Az. Time Alt. Az.
06 Jul - 07:37:39 10° SW 07:40:50 56° SE 07:44:02 10° ENE daylight
06 Jul - 09:14:48 10° WNW 09:17:26 22° NNW 09:20:04 10° NNE daylight
06 Jul - 10:53:34 10° NNW 10:54:45 11° N 10:55:55 10° NNE daylight
06 Jul - 12:30:00 10° NNW 12:32:09 17° NNE 12:34:21 10° ENE daylight
06 Jul - 14:05:46 10° NW 14:09:01 73° NE 14:12:14 10° ESE daylight
06 Jul - 15:43:52 10° WSW 15:45:02 11° SW 15:46:05 10° SSW daylight
07 Jul - 06:44:35 10° SSW 06:47:22 27° SE 06:50:12 10° ENE daylight
07 Jul - 08:20:43 10° W 08:23:43 34° NNW 08:26:43 10° NE daylight
07 Jul - 09:59:17 10° NW 10:00:51 13° N 10:02:24 10° NNE daylight
07 Jul - 11:36:38 10° NNW 11:38:18 13° N 11:39:59 10° NE daylight
07 Jul - 13:12:20 10° NW 13:15:24 39° NNE 13:18:27 10° ESE daylight
07 Jul - 14:49:02 10° W 14:51:39 22° SW 14:54:14 10° S daylight
08 Jul - 05:52:16 10° SSE 05:53:58 14° SE 05:55:47 10° E daylight
08 Jul - 07:26:51 10° WSW 07:30:04 61° NNW 07:33:17 10° NE daylight
08 Jul - 09:04:54 10° NW 09:06:58 15° NNW 09:09:01 10° NNE daylight
08 Jul - 10:43:09 10° NNW 10:44:24 12° N 10:45:40 10° NNE daylight
08 Jul - 12:18:56 10° NNW 12:21:40 24° NNE 12:24:25 10° E daylight
08 Jul - 13:55:04 10° WNW 13:58:12 46° SW 14:01:18 10° SSE daylight
09 Jul - 06:33:15 10° SW 06:36:28 66° SE 06:39:42 10° ENE daylight
09 Jul - 08:10:34 10° WNW 08:13:08 21° NNW 08:15:40 10° NNE daylight
09 Jul - 09:49:18 10° NNW 09:50:28 11° N 09:51:37 10° NNE daylight
09 Jul - 11:25:35 10° NNW 11:27:51 17° NNE 11:30:09 10° ENE daylight
09 Jul - 13:01:24 10° NW 13:04:40 84° NE 13:07:53 10° SE daylight
10 Jul - 05:40:03 10° SSW 05:42:57 31° SE 05:45:54 10° ENE daylight
10 Jul - 07:16:24 10° W 07:19:20 31° NNW 07:22:17 10° NE daylight
10 Jul - 08:55:03 10° NW 08:56:31 12° N 08:57:58 10° NNE daylight
10 Jul - 10:32:12 10° NNW 10:33:58 14° NNE 10:35:45 10° NE daylight
10 Jul - 12:07:52 10° NW 12:11:00 43° NNE 12:14:07 10° ESE daylight
10 Jul - 13:44:45 10° W 13:47:12 20° SW 13:49:36 10° S daylight
11 Jul - 04:47:28 10° S 04:49:29 16° SE 04:51:36 10° E visible
11 Jul - 06:22:25 10° WSW 06:25:37 53° NNW 06:28:48 10° NE daylight
11 Jul - 08:00:36 10° NW 08:02:34 15° NNW 08:04:30 10° NNE daylight
11 Jul - 09:38:42 10° NNW 09:40:01 12° N 09:41:20 10° NNE daylight
11 Jul - 11:14:26 10° NW 11:17:14 26° NNE 11:20:04 10° E daylight
11 Jul - 12:50:39 10° WNW 12:53:43 39° SW 12:56:44 10° SSE daylight
12 Jul - 05:28:43 10° SW 05:31:57 77° SE 05:35:12 10° NE daylight
12 Jul - 07:06:12 10° WNW 07:08:40 19° NNW 07:11:06 10° NNE daylight
12 Jul - 08:44:53 10° NNW 08:46:01 11° N 08:47:09 10° NNE daylight
12 Jul - 10:21:01 10° NNW 10:23:23 19° NNE 10:25:47 10° ENE daylight
12 Jul - 11:56:53 10° NW 12:00:08 84° SW 12:03:21 10° SE daylight
13 Jul - 04:35:22 10° SSW 04:38:22 36° SE 04:41:24 10° ENE visible
13 Jul - 06:11:55 10° W 06:14:48 28° NNW 06:17:40 10° NE daylight
13 Jul - 07:50:38 10° NNW 07:52:01 12° N 07:53:23 10° NNE daylight
13 Jul - 09:27:35 10° NNW 09:29:27 14° NNE 09:31:21 10° NE daylight
13 Jul - 11:03:16 10° NW 11:06:27 49° NNE 11:09:36 10° ESE daylight
13 Jul - 12:40:21 10° W 12:42:36 17° SW 12:44:46 10° S daylight
14 Jul - 03:42:33 10° S 03:44:50 18° SE 03:47:11 10° E visible
14 Jul - 05:17:51 10° WSW 05:21:00 47° NNW 05:24:10 10° NE daylight
14 Jul - 06:56:09 10° NW 06:58:01 14° NNW 06:59:51 10° NNE daylight
14 Jul - 08:34:04 10° NNW 08:35:27 12° N 08:36:52 10° NNE daylight
14 Jul - 10:09:45 10° NW 10:12:39 29° NNE 10:15:32 10° E daylight
14 Jul - 11:46:05 10° WNW 11:49:03 34° SW 11:52:01 10° SSE daylight
15 Jul - 04:24:02 10° SW 04:27:16 88° SSE 04:30:32 10° NE visible
15 Jul - 06:01:40 10° WNW 06:04:02 18° NNW 06:06:23 10° NNE daylight
15 Jul - 07:40:16 10° NNW 07:41:24 11° N 07:42:33 10° NNE daylight
15 Jul - 09:16:17 10° NNW 09:18:45 20° NNE 09:21:15 10° ENE daylight
15 Jul - 10:52:12 10° WNW 10:55:26 73° SW 10:58:39 10° SE daylight
